Terminal Aerodrome Forecast
Issued by NWS

Home | Current Version | Previous Version | Text Only | Print | Product List | Glossary On
Versions: 1 2 3 4 5 6 7 8 9 10 11 12 13 14 15 16 17 18 19 20 21 22 23 24 25 26 27 28 29 30 31 32 33 34 35 36 37 38 39 40 41 42 43 44 45 46 47 48 49 50
000
FTUS46 KEKA 231145
TAFACV
TAF
KACV 231145Z 2312/2412 12004KT 6SM -SHRA SCT025 OVC035
     FM231500 16009KT 6SM -SHRA BKN007 BKN015 OVC035
     FM240000 VRB04KT 6SM BR SCT007 BKN015=

USA.gov is the U.S. government's official web portal to all federal, state and local government web resources and services.